"Pseudo-MPEC" for P1187XD

Created 2020 Oct 19 18:07:25 UT using Find_Orb

Click here for an explanation of pseudo-MPECs

 
 Astrometry: 
     P1187XD  C2020 10 16$vMV#KQ.UJE?l5FgMN!2hVe9(eq7BuhI,EN]E]mI(2;r2(Ea]1O9F51
     P1187XD  C2020 10 16hnSp4$a0TOY`t.CsE6BM#8y5@xP$dYqRN$H)cL]9+C3m@-81)@hAF51
     P1187XD  C2020 10 16?Wbr.@\gk4op61yy]68C3j-3)r#`8vrntPGedq5T(hT@$l=7r-y_F51
     P1187XD  C2020 10 16jqVG2nD*H8dvCea-\Qe?p_DV55=4Nb,^/rRSTFfPiQlPhwl-bl`%F51
     P1187XD  C2020 10 17vn?dB'J[7BgDDBjdL3prd^oVk2s7Lx9FXgB:k#+4k)Xgtwm-mfK+F51
     P1187XD  C2020 10 175(v!!gNS*S8KuR=y7QDAc1o`X-xNl40Bie/qr5K(MFZDyLuwm9bbF51
     P1187XD KC2020 10 17SA;?F--0Pwu_nGOJrWRskvL=LJ0e2L-EYMkAZqWQ0y_PK(x.%%%Q474
     P1187XD KC2020 10 17OjAstrometryp;4IaHP-i0c:Bredacted;:Jm0Rs5qhnclickvny474
     P1187XD KC2020 10 17%^ouT]Dp+NWN^@hZZm6(#i!]XrLLItK(2@#@#G6cOmk4gZHHM_P*474
     P1187XD KC2020 10 17(QA`#m2A]/SW2NZ4dwc2iQy#T!here*m+hu6/5nWGtx^),opZ)^x474
     P1187XD KC2020 10 19'GdpSM-sW%EOoTdcee^#AJrk^!O6(w!RPs%7l67K5fforADP^/ov474
     P1187XD KC2020 10 19MrQjc5k9Ltj'tT`1vL2hGVr+?g(m_DO=4tV:HuOtO5_OeaUQ)Va!474
     P1187XD KC2020 10 19'BxN'RL0o:+TS)\U2K:7VqB_(^;D?]vmeNsOC44#Bexplanation474

Station data:
(474) Mount John Observatory, Lake Tekapo  (S43.987388 E170.464960)  New
   Zealand.  Observers A. C. Gilmore, P. M. Kilmartin. Measurer P. M.
   Kilmartin. 1.0-m f/7.7 reflector + CCD.
(F51) Pan-STARRS 1, Haleakala  (N20.707235 W156.255910)  US/Hawaii.
   Observers N. Primak, A. Schultz, S. Watters, J. Thiel, T. Goggia. Measurer
   PS1 Science Consortium. 1.8-m Ritchey-Chrétien + CCD.

Orbital elements:  P1187XD
   Perihelion 2020 Jun 29.519891 +/- 1.63 TT = 12:28:38 (JD 2459030.019891)
Epoch 2020 Oct 19.0 TT = JDT 2459141.5   Earth MOID: 0.7625   AutoNEOCP
M  24.50243430 +/- 2.4              (J2000 ecliptic)
n   0.21979198 +/- 0.0192           Peri.  238.41481 +/- 2.8
a   2.71932730 +/- 0.158            Node   109.90268 +/- 1.7
e   0.3967438 +/- 0.0485            Incl.   30.78434 +/- 0.52
P   4.48                   H 18.2   G  0.15   U 10.1  
q 1.64045087 +/- 0.0358    Q 3.79820374 +/- 0.331
From 13 observations 2020 Oct. 16-19; mean residual 0".19
Residuals in arcseconds: 
201016 F51  .04-  .07+    201017 F51  .12-  .26+    201019 474  .14+  .17-    
201016 F51  .01-  .00     201017 474  .25+  .15+    201019 474  .27+  .21+    
201016 F51  .03+  .05-    201017 474  .19+  .10-    201019 474  .44-  .01-    
201016 F51  .03-  .02+    201017 474  .14+  .35-    
201017 F51  .20-  .25+    201017 474  .19-  .30-    

Ephemerides (geocentric):
Date (UTC) HH   RA              Dec         delta   r     elong  mag " sig PA
---- -- -- --  -------------   -----------  ------ ------ -----  --- ---- ---
2020 10 19 18  05 14 59.058   -23 35 53.24  1.2034 1.8804 117.2 21.2 .106 127
2020 10 19 19  05 14 58.146   -23 36 00.69  1.2033 1.8806 117.2 21.2 .122 129
2020 10 19 20  05 14 57.229   -23 36 08.11  1.2032 1.8807 117.3 21.2 .138 130
2020 10 19 21  05 14 56.307   -23 36 15.49  1.2031 1.8809 117.3 21.2 .154 131
2020 10 19 22  05 14 55.380   -23 36 22.85  1.2030 1.8810 117.3 21.2 .170 132
2020 10 19 23  05 14 54.449   -23 36 30.18  1.2029 1.8812 117.3 21.2 .187 132
2020 10 20 00  05 14 53.514   -23 36 37.48  1.2028 1.8813 117.4 21.2 .205 133
2020 10 20 01  05 14 52.574   -23 36 44.74  1.2027 1.8815 117.4 21.2 .223 134
2020 10 20 02  05 14 51.629   -23 36 51.98  1.2026 1.8816 117.4 21.2 .241 134
2020 10 20 03  05 14 50.680   -23 36 59.19  1.2025 1.8818 117.4 21.2 .260 135
2020 10 20 04  05 14 49.726   -23 37 06.37  1.2024 1.8820 117.5 21.2 .279 135
2020 10 20 05  05 14 48.768   -23 37 13.52  1.2023 1.8821 117.5 21.2 .298 135
2020 10 20 06  05 14 47.805   -23 37 20.65  1.2022 1.8823 117.5 21.2 .318 136
2020 10 20 07  05 14 46.837   -23 37 27.74  1.2021 1.8824 117.5 21.2 .339 136
2020 10 20 08  05 14 45.865   -23 37 34.80  1.2020 1.8826 117.6 21.2 .359 136
2020 10 20 09  05 14 44.888   -23 37 41.83  1.2019 1.8828 117.6 21.2 .381 137
2020 10 20 10  05 14 43.907   -23 37 48.83  1.2018 1.8829 117.6 21.2 .402 137
2020 10 20 11  05 14 42.922   -23 37 55.80  1.2017 1.8831 117.7 21.2 .424 137
2020 10 20 12  05 14 41.931   -23 38 02.74  1.2016 1.8832 117.7 21.2 .446 137
2020 10 20 13  05 14 40.936   -23 38 09.65  1.2015 1.8834 117.7 21.2 .469 138
2020 10 20 14  05 14 39.937   -23 38 16.53  1.2014 1.8835 117.7 21.2 .492 138
2020 10 20 15  05 14 38.933   -23 38 23.39  1.2013 1.8837 117.8 21.2 .515 138
2020 10 20 16  05 14 37.925   -23 38 30.21  1.2012 1.8839 117.8 21.2 .539 138
2020 10 20 17  05 14 36.912   -23 38 37.00  1.2011 1.8840 117.8 21.2 .564 138
2020 10 20 18  05 14 35.894   -23 38 43.76  1.2010 1.8842 117.8 21.2 .588 138
2020 10 20 19  05 14 34.872   -23 38 50.49  1.2009 1.8843 117.9 21.2 .613 139
2020 10 20 20  05 14 33.845   -23 38 57.19  1.2008 1.8845 117.9 21.2 .639 139
2020 10 20 21  05 14 32.814   -23 39 03.85  1.2007 1.8846 117.9 21.2 .664 139
2020 10 20 22  05 14 31.778   -23 39 10.49  1.2005 1.8848 117.9 21.2 .690 139
2020 10 20 23  05 14 30.738   -23 39 17.10  1.2004 1.8850 118.0 21.2 .717 139
2020 10 21 00  05 14 29.693   -23 39 23.68  1.2003 1.8851 118.0 21.2 .744 139
2020 10 21 01  05 14 28.644   -23 39 30.22  1.2002 1.8853 118.0 21.2 .771 139
2020 10 21 02  05 14 27.590   -23 39 36.74  1.2001 1.8854 118.0 21.2 .799 140
2020 10 21 03  05 14 26.531   -23 39 43.22  1.2000 1.8856 118.1 21.2 .827 140
2020 10 21 04  05 14 25.469   -23 39 49.68  1.1999 1.8857 118.1 21.2 .855 140
2020 10 21 05  05 14 24.401   -23 39 56.10  1.1998 1.8859 118.1 21.2 .884 140
2020 10 21 06  05 14 23.329   -23 40 02.49  1.1997 1.8861 118.2 21.2 .913 140
2020 10 21 07  05 14 22.253   -23 40 08.85  1.1996 1.8862 118.2 21.2 .942 140
2020 10 21 08  05 14 21.172   -23 40 15.18  1.1995 1.8864 118.2 21.2 .972 140
2020 10 21 09  05 14 20.086   -23 40 21.48  1.1994 1.8865 118.2 21.2 1.00 140
2020 10 21 10  05 14 18.996   -23 40 27.75  1.1993 1.8867 118.3 21.2 1.03 141
2020 10 21 11  05 14 17.901   -23 40 33.98  1.1992 1.8868 118.3 21.2 1.06 141
2020 10 21 12  05 14 16.802   -23 40 40.19  1.1991 1.8870 118.3 21.2 1.10 141
2020 10 21 13  05 14 15.699   -23 40 46.36  1.1990 1.8872 118.3 21.2 1.13 141
2020 10 21 14  05 14 14.591   -23 40 52.50  1.1989 1.8873 118.4 21.2 1.16 141
2020 10 21 15  05 14 13.478   -23 40 58.62  1.1988 1.8875 118.4 21.2 1.19 141
2020 10 21 16  05 14 12.361   -23 41 04.70  1.1987 1.8876 118.4 21.2 1.22 141
2020 10 21 17  05 14 11.239   -23 41 10.74  1.1986 1.8878 118.4 21.2 1.26 141